Huntsville, TX

10:38 PM CDT on July 22, 2017 (GMT -0500)
Huntsville Municipal

Weather History for KUTS - February, 2014

Change the Weather History Date:

Wednesday, February 19, 2014

  Actual Average (KCXO) Record (KCXO)
Temperature  
Mean Temperature 70 °F -  
Max Temperature 77 °F 64 °F 81 °F (2016)
Min Temperature 63 °F 44 °F 32 °F (2007)
Cooling Degree Days 5    
Growing Degree Days 20 (Base 50)    
Moisture  
Dew Point 61 °F    
Average Humidity 78    
Maximum Humidity 90    
Minimum Humidity 56    
Precipitation  
Precipitation 0.00 in - - ()
Sea Level Pressure  
Sea Level Pressure 29.90 in    
Wind  
Wind Speed 9 mph (South)    
Max Wind Speed 20 mph    
Max Gust Speed 25 mph    
Visibility 10 miles    
Events      
Averages and records for this station are not official NWS values.
T = Trace of Precipitation, MM = Missing Value Source: NWS Daily Summary

Daily Weather History Graph

Daily Weather History Graph

Search for Another Location

Airport or City:

Trip Planner

Search our weather history database for the weather conditions in past years. The results will help you decide how hot, cold, wet, or windy it might be!

Date:

Astronomy

Feb. 19, 2014 Rise Set
Actual Time 6:59 AM CST 6:13 PM CST
Civil Twilight 6:34 AM CST 6:38 PM CST
Nautical Twilight 6:06 AM CST 7:06 PM CST
Astronomical Twilight 5:38 AM CST 7:34 PM CST
Moon 10:45 PM CST (2/19) 9:26 AM CST (2/19)
Length of Visible Light 12h 03m
Length of Day
11h 14m
Waning Gibbous, 79% of the Moon is Illuminated
Feb 19
Waning Gibbous
Feb 22
Last Quarter
Mar 1
New
Mar 8
First Quarter
Mar 16
Full

Hourly Weather History & Observations

Time (CST) Temp. Dew Point Humidity Pressure Visibility Wind Dir Wind Speed Gust Speed Precip Events Conditions
12:15 AM 64.0 °F 61.0 °F 90% 29.97 in 10.0 mi South 9.2 mph - N/A   Mostly Cloudy
12:53 AM 64.9 °F 61.0 °F 87% 29.96 in 10.0 mi South 8.1 mph - N/A   Overcast
1:09 AM 64.9 °F 61.0 °F 87% 29.97 in 10.0 mi South 11.5 mph - N/A   Overcast
1:53 AM 64.9 °F 61.0 °F 87% 29.97 in 10.0 mi South 6.9 mph - N/A   Overcast
2:53 AM 66.0 °F 60.1 °F 81% 29.96 in 10.0 mi South 5.8 mph - N/A   Overcast
3:53 AM 64.9 °F 60.1 °F 84% 29.95 in 10.0 mi South 6.9 mph - N/A   Overcast
4:24 AM 64.9 °F 60.1 °F 84% 29.96 in 10.0 mi South 4.6 mph - N/A   Overcast
4:37 AM 64.9 °F 60.1 °F 84% 29.96 in 10.0 mi SSE 5.8 mph - N/A   Overcast
4:53 AM 64.0 °F 60.1 °F 87% 29.95 in 10.0 mi SSE 4.6 mph - N/A   Mostly Cloudy
5:14 AM 64.0 °F 60.1 °F 87% 29.96 in 10.0 mi South 4.6 mph - N/A   Mostly Cloudy
5:24 AM 63.0 °F 60.1 °F 90% 29.95 in 10.0 mi South 5.8 mph - N/A   Scattered Clouds
5:45 AM 63.0 °F 60.1 °F 90% 29.96 in 10.0 mi South 4.6 mph - N/A   Mostly Cloudy
5:53 AM 63.0 °F 60.1 °F 90% 29.95 in 10.0 mi South 5.8 mph - N/A   Mostly Cloudy
6:19 AM 63.0 °F 60.1 °F 90% 29.96 in 10.0 mi South 4.6 mph - N/A   Partly Cloudy
6:53 AM 63.0 °F 60.1 °F 90% 29.95 in 10.0 mi SSE 5.8 mph - N/A   Partly Cloudy
7:18 AM 63.0 °F 60.1 °F 90% 29.96 in 10.0 mi South 5.8 mph - N/A   Mostly Cloudy
7:53 AM 64.0 °F 60.1 °F 87% 29.95 in 10.0 mi South 4.6 mph - N/A   Scattered Clouds
8:53 AM 66.9 °F 61.0 °F 81% 29.96 in 10.0 mi South 13.8 mph 21.9 mph N/A   Clear
9:53 AM 70.0 °F 61.0 °F 73% 29.96 in 10.0 mi South 19.6 mph 25.3 mph N/A   Partly Cloudy
10:53 AM 73.0 °F 62.1 °F 68% 29.95 in 10.0 mi South 11.5 mph 19.6 mph N/A   Scattered Clouds
11:53 AM 73.9 °F 61.0 °F 64% 29.93 in 10.0 mi South 12.7 mph - N/A   Mostly Cloudy
12:53 PM 73.0 °F 61.0 °F 66% 29.90 in 10.0 mi South 10.4 mph - N/A   Overcast
1:53 PM 75.9 °F 62.1 °F 62% 29.86 in 10.0 mi South 15.0 mph 19.6 mph N/A   Mostly Cloudy
2:53 PM 77.0 °F 60.1 °F 56% 29.83 in 10.0 mi SSE 11.5 mph 23.0 mph N/A   Scattered Clouds
3:53 PM 77.0 °F 60.1 °F 56% 29.81 in 10.0 mi South 15.0 mph 23.0 mph N/A   Scattered Clouds
4:53 PM 77.0 °F 60.1 °F 56% 29.80 in 10.0 mi South 16.1 mph 25.3 mph N/A   Clear
5:53 PM 75.0 °F 60.1 °F 60% 29.80 in 9.0 mi South 8.1 mph - N/A   Partly Cloudy
6:53 PM 73.0 °F 62.1 °F 68% 29.79 in 10.0 mi SSE 10.4 mph 19.6 mph N/A   Mostly Cloudy
7:53 PM 70.0 °F 60.1 °F 71% 29.80 in 10.0 mi SSE 10.4 mph 23.0 mph N/A   Partly Cloudy
8:53 PM 68.0 °F 60.1 °F 76% 29.80 in 10.0 mi SSE 10.4 mph 17.3 mph N/A   Clear
9:32 PM 66.9 °F 61.0 °F 81% 29.81 in 10.0 mi South 16.1 mph 25.3 mph N/A   Mostly Cloudy
9:53 PM 66.9 °F 61.0 °F 81% 29.79 in 10.0 mi South 16.1 mph 23.0 mph N/A   Mostly Cloudy
10:53 PM 66.9 °F 61.0 °F 81% 29.80 in 10.0 mi South 11.5 mph 21.9 mph N/A   Mostly Cloudy
11:53 PM 66.9 °F 61.0 °F 81% 29.79 in 10.0 mi South 11.5 mph 20.7 mph N/A   Overcast